Printer-friendly version

IAU Minor Planet Center

Minor Planet Center

MPEC 2000-P08: 2000 OL8

The following Minor Planet Electronic Circular may be linked-to from your own Web pages, but must not otherwise be redistributed electronically.


Read MPEC 2000-P07 Read MPEC 2000-P09


M.P.E.C. 2000-P08                                Issued 2000 Aug. 1, 16:32 UT

     The Minor Planet Electronic Circulars contain information on unusual
         minor planets and routine data on comets.  They are published
   on behalf of Commission 20 of the International Astronomical Union by the
          Minor Planet Center, Smithsonian Astrophysical Observatory,
                          Cambridge, MA 02138, U.S.A.

             Prepared using the Tamkin Foundation Computer Network

             BMARSDEN@CFA.HARVARD.EDU or GWILLIAMS@CFA.HARVARD.EDU
          URL http://cfa-www.harvard.edu/iau/mpc.html  ISSN 1523-6714

                                   2000 OL8

Observations:
     K00O08L* C2000 07 30.37282 23 26 26.49 +14 29 22.3          18.4        704
     K00O08L  C2000 07 30.38635 23 26 22.58 +14 29 18.2          19.1        704
     K00O08L  C2000 07 30.40010 23 26 18.66 +14 29 15.1          18.9        704
     K00O08L  C2000 07 30.42692 23 26 11.03 +14 29 09.3          18.8        704
     K00O08L  C2000 07 30.89030 23 24 04.08 +14 26 59.7                      557
     K00O08L  C2000 07 30.89449 23 24 02.97 +14 26 59.0                      557
     K00O08L  C2000 07 30.91197 23 23 58.02 +14 26 55.7                      557
     K00O08L 1C2000 07 31.35733 23 21 54.94 +14 24 50.0                      658
     K00O08L 1C2000 07 31.35868 23 21 54.57 +14 24 49.9                      658
     K00O08L 1C2000 07 31.36079 23 21 53.97 +14 24 49.3                      658
     K00O08L 2C2000 07 31.63358 23 20 37.23 +14 23 38.4          18.3 R      568
     K00O08L 2C2000 07 31.63532 23 20 36.73 +14 23 37.9          18.3 R      568
     K00O08L WC2000 07 31.89774 23 19 26.44 +14 22 00.0                      557
     K00O08L WC2000 07 31.89902 23 19 26.19 +14 22 00.2                      557
     K00O08L WC2000 07 31.90030 23 19 25.84 +14 21 58.8                      557
     K00O08L IC2000 07 31.94387 23 19 13.87 +14 21 43.3                      587
     K00O08L  C2000 07 31.94722 23 19 12.87 +14 21 45.0                      587
     K00O08L  C2000 07 31.95933 23 19 09.53 +14 21 41.9                      611
     K00O08L  C2000 07 31.96265 23 19 08.63 +14 21 40.7                      611
     K00O08L  C2000 07 31.96525 23 19 07.78 +14 21 40.0                      611
     K00O08L  C2000 07 31.96751 23 19 07.08 +14 21 38.9                      046
     K00O08L  C2000 07 31.96911 23 19 06.56 +14 21 37.7                      046
     K00O08L  C2000 08 01.04156 23 18 46.18 +14 21 15.5                      118
     K00O08L  C2000 08 01.05002 23 18 43.80 +14 21 12.9                      118
     K00O08L  C2000 08 01.05667 23 18 41.85 +14 21 11.0          18.2 R      118
     K00O08L 1C2000 08 01.36407 23 17 18.19 +14 19 24.2                      658
     K00O08L 1C2000 08 01.36893 23 17 16.82 +14 19 22.4                      658
     K00O08L 1C2000 08 01.37234 23 17 15.89 +14 19 21.0                      658
     K00O08L  C2000 08 01.42203 23 17 01.35 +14 19 11.1                      711
     K00O08L  C2000 08 01.42783 23 16 59.71 +14 19 08.7                      711
     K00O08L  C2000 08 01.43174 23 16 58.64 +14 19 07.2                      711

Observer details:
046 Klet.  Observers J. Ticha, M. Tichy.  0.57-m f/5.2 reflector + CCD.
118 Modra.  Observers A. Galad, P. Koleny.  0.6-m f/5.5 reflector + CCD.
557 Ondrejov.  Observer L. Sarounova.  0.65-m f/3.6 reflector + CCD.
568 Mauna Kea.  Observer D. J. Tholen.  2.24-m reflector + CCD.
587 Sormano.  Observer F. Manca.  0.5-m reflector + CCD.
611 Starkenburg.  Observers M. Busch, R. Stoss.  0.45-m f/4.4 reflector + CCD.
658 National Research Council of Canada.  Observer D. D. Balam.  1.82-m
    Plaskett reflector + CCD.
704 Lincoln Laboratory ETS, New Mexico.  Observers M. Blythe, F. Shelly,
    M. Bezpalko, M. Elowitz, R. Huber, L. Manguso.  Measurers J. Stuart,
    R. Sayer, J. B. Evans, H. Viggh.  1.0-m f/2.15 reflector + CCD.
711 McDonald Observatory.  Observers P. J. Shelus, J. G. Ries.  0.76-m
    reflector + CCD.

Orbital elements:
2000 OL8                                                             PHA 0.012
Epoch 2000 July 15.0 TT = JDT 2451740.5                 Williams
M  42.45582              (2000.0)            P               Q
n   0.64608436     Peri.  267.07671     -0.91035355     +0.37858386
a   1.3251852      Node   295.12018     -0.26660483     -0.84540271
e   0.5420435      Incl.   10.63680     -0.31650953     -0.37678711
P   1.53           H   19.1           G   0.15
From 31 observations 2000 July 30-Aug. 1.

Ephemeris:
2000 OL8                 a,e,i = 1.33, 0.54, 11                  q = 0.6069
Date    TT    R. A. (2000) Decl.     Delta      r     Elong.  Phase     V
2000 07 25    23 51.30   +14 37.5    0.314    1.194   117.5    49.0    18.8
2000 07 30    23 28.16   +14 30.9    0.325    1.237   126.7    41.1    18.7
2000 08 04    23 05.37   +14 01.0    0.340    1.280   135.6    33.7    18.7
2000 08 09    22 43.67   +13 10.0    0.359    1.321   143.9    26.9    18.7
2000 08 14    22 23.75   +12 02.3    0.383    1.361   151.1    21.1    18.7
2000 08 19    22 06.10   +10 43.6    0.413    1.400   156.3    16.9    18.8
2000 08 24    21 50.98   +09 19.6    0.447    1.437   158.9    14.7    19.0
2000 08 29    21 38.47   +07 54.9    0.487    1.473   158.4    14.6    19.2
2000 09 03    21 28.49   +06 33.2    0.532    1.509   155.5    16.1    19.5

2000 09 13    21 15.38   +04 08.0    0.634    1.575   146.6    20.6    20.1
2000 09 23    21 09.68   +02 12.7    0.752    1.636   137.1    24.7    20.7
2000 10 03    21 09.56   +00 47.3    0.882    1.693   128.1    27.7    21.2
2000 10 13    21 13.62   -00 10.6    1.021    1.745   119.6    29.8    21.6
2000 10 23    21 20.72   -00 44.6    1.168    1.793   111.8    31.0    22.0

Gareth V. Williams           (C) Copyright 2000 MPC           M.P.E.C. 2000-P08

Read MPEC 2000-P07 Read MPEC 2000-P09


Our Web policy. Index to the CBAT/MPC/ICQ pages.


Valid HTML 4.01!